Temp
5 5 5 5 6 6 7 7 7 8 9 10 11 11 11 12 13 11 12 14 17 15 15 15 16 17 17 20 18 17 18 16 16 15 14 16 16 18 18 19 17 17 15 13 13 14 16 18 17 18 19 18 17 17
5 5 6 6 6 7 7 8 9 10 11 11 11 11 12 13 13 12 12 14 15 16 14 13 12 12 14 17 19 17 20 18 20 17 14 13 13 10 16 18 16 17 19 18 18 19 18 18 19 17 16 17 17 16
6 7 7 7 7 7 8 9 10 11 11 11 12 12 13 14 13 12 13 14 14 14 15 16 15 13 12 12 13 18 15 17 17 15 16 14 12 15 13 17 18 17 16 17 16 19 18 18 18 17 17 16 16 14
7 8 8 8 9 10 10 11 11 11 11 12 12 13 13 14 13 14 15 14 14 11 11 14 12 12 10 12 13 14 15 12 13 15 12 11 14 14 15 17 17 18 16 17 17 18 18 17 16 15 14 13 13 12
9 10 10 10 10 10 10 11 11 11 12 13 13 13 14 13 14 15 14 14 15 14 11 12 12 11 11 12 13 13 15 16 15 12 10 14 13 13 11 13 15 16 17 16 17 15 16 15 12 11 13 12 12 12
9 9 9 10 10 10 11 11 12 12 13 13 13 14 14 14 15 17 15 14 13 14 12 12 11 12 11 12 12 12 14 14 13 12 9 11 10 13 10 15 14 14 14 14 15 13 13 11 11 11 12 11 11 10
9 9 9 10 10 10 11 11 12 12 13 13 13 13 13 13 15 15 15 12 15 12 10 10 12 11 9 12 10 12 11 9 13 9 9 10 10 13 8 15 12 12 12 12 11 12 12 10 10 10 10 8 6 5
9 10 10 11 11 11 12 12 12 12 12 13 13 12 14 15 13 12 8 13 12 12 12 9 11 11 9 9 9 9 9 10 9 8 8 9 9 9 11 11 11 11 11 10 10 10 10 9 8 7 6 5 4 3
10 9 10 11 11 12 11 11 11 11 12 13 14 15 14 13 12 10 10 12 11 12 8 7 11 11 9 7 7 9 8 8 7 9 8 10 8 10 8 8 10 10 9 9 9 9 8 7 6 6 5 5 4 5
10 10 10 11 11 11 11 11 11 11 12 14 15 13 10 8 9 11 11 12 8 6 5 6 8 8 9 8 8 9 7 8 9 8 7 10 10 6 6 6 7 8 9 9 6 5 5 5 5 6 6 7 7 6
9 9 9 11 11 11 11 11 11 12 13 13 9 8 8 10 10 8 7 8 8 8 7 7 9 8 7 9 7 6 7 7 9 10 10 10 10 6 5 6 7 7 7 7 7 6 6 6 7 7 6 5 4 4
8 9 10 10 10 10 11 12 13 13 10 10 10 9 9 9 8 8 7 7 8 8 7 8 7 7 6 7 8 7 6 8 10 8 9 9 7 5 6 6 7 6 6 6 6 6 5 5 5 5 4 4 3 2
7 8 8 9 10 11 11 11 10 11 11 11 8 6 9 7 9 12 9 9 8 6 6 6 6 6 6 7 6 8 9 8 8 9 10 8 6 5 5 6 6 5 5 6 6 5 4 3 2 2 2 1 1 1
5 7 8 8 8 9 10 10 10 12 11 5 7 8 8 9 7 7 8 8 4 4 6 6 5 6 6 8 7 10 6 7 8 9 8 5 5 4 5 6 6 4 2 4 4 3 1 1 1 -0 -1 -1 -1 -1
5 5 6 5 6 7 8 8 9 9 5 5 6 7 6 4 3 3 3 4 3 3 5 7 6 8 6 7 6 7 7 8 9 9 6 4 3 5 5 5 5 3 2 3 3 0 -1 -1 -0 -0 -1 -2 -3 -3
6 6 4 4 5 7 8 9 8 5 2 3 4 4 3 4 4 3 3 3 2 3 4 6 6 8 6 7 8 8 9 9 7 6 4 3 3 5 5 4 4 3 3 3 2 1 -1 -2 -2 -2 -2 -4 -4 -4
6 3 4 5 5 6 7 6 4 1 2 4 3 2 3 3 3 3 3 2 1 4 5 6 8 6 5 7 6 6 7 6 4 3 2 3 4 5 4 3 1 2 2 1 0 -1 -1 -3 -3 -3 -3 -4 -4 -4
2 4 6 6 7 6 4 2 1 2 3 3 4 2 2 2 3 2 1 1 3 4 5 6 6 6 7 7 7 5 4 3 2 2 1 2 4 4 3 2 1 0 -1 -2 -2 -2 -3 -3 -3 -3 -4 -5 -5 -5
3 5 6 6 6 5 3 2 3 3 3 2 2 2 2 1 1 1 1 1 2 3 5 5 6 7 6 6 5 4 3 3 2 1 -0 -1 -1 -1 -1 -2 -2 -2 -2 -2 -3 -3 -4 -5 -6 -6 -7 -7 -7 -7
5 6 6 6 6 4 3 3 3 4 3 2 2 2 2 2 1 1 1 2 3 4 4 5 4 3 4 3 4 5 5 4 3 2 0 -1 -2 -2 -2 -1 -2 -3 -3 -4 -5 -6 -5 -6 -7 -8 -9 -10 -10 -10
6 5 5 5 4 2 2 3 3 3 2 2 2 2 2 3 3 3 3 3 3 1 2 0 -0 -1 -1 -1 1 2 2 3 2 3 2 -1 -2 -2 -3 -4 -5 -5 -5 -6 -6 -7 -8 -9 -10 -11 -11 -11 -12 -11
3 3 4 4 1 1 2 1 3 2 3 2 3 3 3 3 3 2 2 3 1 -0 0 0 -0 0 -0 -0 -1 -1 -1 -1 -2 -2 -3 -3 -3 -4 -4 -5 -5 -7 -8 -9 -9 -10 -10 -11 -13 -13 -12 -13 -12 -12
2 3 1 0 1 2 1 2 3 3 3 2 3 3 3 2 2 2 2 2 -0 -1 -1 -2 -2 -2 -2 -3 -3 -3 -2 -2 -3 -4 -4 -4 -6 -6 -7 -8 -9 -9 -9 -10 -11 -11 -12 -14 -14 -14 -13 -13 -13 -13
1 -2 -1 -1 1 0 -0 1 2 3 3 3 3 2 1 1 1 2 2 1 -1 -1 -2 -3 -3 -3 -3 -3 -3 -4 -5 -5 -5 -5 -6 -6 -6 -8 -8 -10 -11 -12 -13 -13 -13 -14 -14 -14 -15 -14 -14 -14 -14 -14
0 -1 -0 -1 -1 0 -0 1 2 2 2 2 2 2 1 0 1 1 1 -1 -2 -3 -2 -2 -2 -3 -4 -5 -6 -7 -7 -5 -6 -7 -8 -8 -9 -9 -10 -11 -12 -13 -14 -13 -14 -14 -14 -15 -15 -15 -15 -15 -15 -15
-1 -1 -0 -1 -0 1 0 1 1 1 0 1 1 -1 -0 0 -0 -1 -2 -3 -4 -4 -4 -3 -3 -4 -5 -6 -6 -7 -9 -9 -8 -9 -10 -10 -10 -10 -10 -10 -10 -12 -15 -16 -16 -16 -15 -16 -16 -16 -16 -15 -15 -16
-0 -1 -1 -1 0 0 0 -1 -0 1 1 1 1 1 1 0 -1 -3 -4 -6 -5 -8 -8 -7 -7 -7 -8 -9 -10 -11 -11 -11 -10 -11 -12 -13 -14 -14 -14 -13 -14 -15 -16 -17 -17 -17 -17 -17 -17 -17 -16 -16 -16 -16
-1 -1 -0 -2 -1 -1 -0 -0 0 1 1 0 1 -0 -1 -2 -4 -6 -7 -8 -9 -10 -11 -12 -12 -11 -11 -12 -12 -12 -13 -13 -13 -13 -14 -14 -15 -16 -16 -16 -17 -16 -17 -17 -18 -18 -18 -18 -17 -17 -16 -17 -17 -18
-1 -1 -1 -3 -1 -0 -0 -0 0 -1 -2 -0 -0 -3 -6 -8 -11 -10 -10 -10 -10 -10 -10 -11 -12 -13 -13 -14 -14 -14 -14 -13 -11 -11 -11 -11 -12 -14 -16 -17 -17 -18 -18 -19 -18 -19 -18 -18 -18 -18 -19 -19 -19 -20
-1 -2 -0 -2 -2 -1 -1 -2 -2 -4 -5 -5 -6 -7 -9 -11 -13 -13 -12 -12 -12 -13 -13 -14 -14 -12 -13 -12 -13 -14 -15 -16 -16 -14 -13 -13 -14 -16 -17 -17 -18 -18 -19 -19 -19 -19 -19 -19 -19 -19 -19 -20 -19 -20
-3 -1 -1 -1 -1 -2 -3 -4 -4 -5 -6 -7 -8 -8 -9 -10 -12 -14 -14 -14 -14 -13 -13 -13 -14 -15 -14 -14 -13 -13 -14 -16 -16 -16 -17 -17 -18 -18 -18 -18 -19 -19 -19 -20 -20 -20 -20 -20 -19 -20 -20 -20 -21 -22
-3 -4 -3 -2 -2 -5 -6 -4 -4 -4 -5 -6 -9 -9 -10 -9 -10 -12 -15 -14 -13 -13 -15 -14 -13 -14 -15 -15 -15 -15 -16 -16 -17 -17 -17 -18 -18 -18 -18 -19 -19 -19 -19 -20 -20 -20 -21 -21 -20 -20 -21 -21 -22 -23
-5 -4 -5 -4 -3 -3 -7 -6 -6 -6 -7 -8 -9 -10 -11 -10 -12 -13 -15 -15 -15 -15 -15 -16 -15 -15 -15 -15 -15 -16 -16 -17 -17 -17 -17 -17 -18 -18 -18 -19 -20 -20 -20 -20 -20 -21 -21 -21 -21 -21 -21 -22 -23 -23
Height
573 582 589 600 607 614 617 626 634 644 652 660 668 674 680 688 697 707 704 705 705 715 724 727 728 730 735 733 743 757 762 766 771 777 783 780 783 778 778 776 784 786 795 805 812 806 798 775 781 783 774 773 775 775
575 583 587 597 604 613 620 628 636 642 649 657 664 671 677 686 697 704 707 706 705 711 727 731 733 734 732 732 735 748 743 747 749 763 777 784 790 801 780 776 783 783 774 777 780 773 772 774 770 774 776 776 777 778
577 581 590 598 607 615 623 630 637 643 648 653 660 667 675 685 697 702 703 704 706 720 731 730 733 736 734 734 735 738 748 746 750 754 763 774 785 777 791 777 773 776 781 780 781 766 770 772 772 773 775 777 779 781
583 591 599 607 613 619 624 629 634 640 646 652 659 665 674 685 696 700 699 702 707 721 734 736 737 738 737 734 735 735 737 746 753 755 765 777 775 778 776 772 772 771 779 774 775 767 768 771 775 778 778 781 782 783
595 600 606 613 619 624 628 632 636 641 646 650 656 665 675 687 696 698 699 705 708 714 733 736 740 743 740 737 736 737 740 742 749 760 771 768 775 779 786 782 775 772 768 774 771 775 773 777 783 783 780 781 783 785
606 611 616 621 626 629 632 635 638 641 645 653 661 669 678 688 696 698 704 707 709 715 727 737 746 745 745 744 742 744 745 747 752 760 776 775 779 775 786 772 775 776 777 778 774 780 780 784 786 785 784 787 789 793
618 622 627 631 635 636 638 641 642 644 648 656 664 673 682 690 694 697 699 702 709 719 728 742 741 748 748 745 749 750 753 758 756 771 777 779 780 776 789 770 781 781 782 782 784 782 783 787 790 791 793 797 800 804
630 634 637 639 642 645 646 649 649 653 659 664 673 683 690 694 700 703 706 708 714 719 719 740 745 746 752 753 758 761 761 762 771 777 782 782 785 785 779 781 783 784 785 787 788 787 788 793 797 801 804 806 807 810
642 645 646 648 648 651 656 660 663 668 671 676 681 685 689 694 700 706 707 710 713 715 727 738 738 745 757 763 765 763 766 772 780 778 781 779 788 781 789 790 785 787 788 791 792 794 797 800 803 806 808 810 812 812
651 653 655 656 659 661 664 668 671 674 676 676 679 682 697 704 705 705 709 711 716 725 731 747 750 753 756 760 765 766 772 773 777 782 785 778 777 794 796 795 792 789 790 793 798 803 804 805 808 809 810 811 811 812
660 662 665 665 669 673 675 678 679 680 677 681 689 700 704 704 705 713 726 728 732 737 743 750 747 751 762 757 766 774 774 779 772 775 776 777 776 793 797 795 794 794 795 796 798 803 806 808 808 810 813 816 816 817
668 669 671 672 675 677 679 682 683 685 690 692 695 703 709 714 720 727 739 740 735 741 750 749 754 757 764 763 764 774 778 777 768 781 777 775 788 795 796 797 798 799 800 802 805 807 810 812 813 815 816 818 819 820
673 675 678 680 681 683 686 688 691 692 693 696 700 712 713 724 721 713 729 734 740 746 752 753 756 760 765 764 771 768 765 774 778 776 770 781 790 795 798 800 803 805 807 808 810 813 815 817 818 819 820 822 821 821
679 679 681 685 688 691 693 696 696 695 697 711 715 721 722 721 735 736 735 737 752 752 752 754 758 758 765 763 768 759 780 778 775 771 771 790 793 798 802 803 806 810 812 812 815 817 819 820 822 823 823 823 822 822
688 686 688 691 693 695 698 700 701 703 712 723 724 728 736 747 748 750 750 750 755 756 753 752 758 758 765 767 771 774 774 769 767 764 781 791 796 800 802 806 809 812 814 815 818 820 821 822 823 824 825 825 824 823
694 693 695 698 698 699 701 703 705 711 726 735 741 743 749 747 750 752 754 756 758 758 757 757 761 759 768 766 766 764 760 759 773 781 790 794 798 800 804 808 811 814 816 818 820 822 824 825 825 826 827 826 825 823
700 704 704 704 703 703 704 707 716 730 740 743 748 750 749 751 753 756 758 760 761 759 760 761 756 765 773 768 770 772 770 778 786 791 794 796 799 802 807 811 815 816 818 821 824 825 826 827 828 827 826 825 824 822
707 709 708 708 708 709 712 721 733 742 747 750 748 755 757 758 759 761 763 763 762 763 764 764 767 768 766 767 770 779 784 789 792 795 799 802 803 806 810 813 817 820 822 824 825 827 828 828 828 828 827 826 823 820
712 712 711 711 710 713 725 737 740 746 754 756 758 759 761 764 767 768 768 767 766 767 766 767 767 766 770 774 778 782 788 791 795 802 805 807 809 812 815 818 820 823 825 827 828 829 830 830 830 829 828 826 823 821
715 715 714 712 712 719 735 745 746 749 756 762 764 765 766 769 771 771 770 769 768 768 770 771 775 782 780 786 785 784 789 793 798 802 809 813 815 817 819 821 824 826 828 830 831 832 831 831 831 830 829 827 824 821
716 717 715 715 719 729 745 751 753 758 762 764 768 767 770 770 770 771 772 773 773 781 782 790 793 795 796 795 793 793 794 796 798 800 804 813 818 820 823 826 828 830 831 832 832 833 833 833 832 831 829 827 825 822
722 721 721 723 732 742 752 758 758 762 764 768 769 769 771 772 774 778 779 777 786 792 792 793 796 796 798 798 799 799 801 801 804 807 811 815 819 823 826 828 830 831 833 834 834 835 834 834 832 831 829 827 824 821
726 727 732 737 744 752 765 763 762 765 764 770 771 771 775 777 781 782 782 787 794 798 798 799 801 801 802 804 805 806 807 808 811 814 817 820 824 827 829 831 833 834 834 836 836 835 835 833 832 830 828 825 823 821
733 740 749 755 759 767 770 769 768 770 770 770 772 777 781 783 786 784 785 792 800 801 801 803 804 806 808 809 810 813 814 815 818 820 823 824 827 830 832 833 835 836 837 837 836 836 834 833 831 829 826 824 822 820
746 765 762 768 771 771 776 775 774 774 776 776 776 780 785 788 787 788 789 801 805 806 805 805 806 808 811 814 817 819 820 820 821 824 827 828 830 832 834 835 836 837 837 836 836 834 833 831 829 827 825 824 822 820
766 775 773 777 777 773 778 776 779 780 781 779 782 789 789 788 791 794 804 811 812 813 813 812 812 813 816 818 820 822 825 825 826 827 831 832 833 834 835 835 836 837 837 836 835 833 831 830 828 826 824 822 820 818
773 779 782 783 780 781 781 784 784 781 780 780 782 785 784 787 795 811 817 821 820 822 821 819 818 819 822 824 826 827 828 828 828 831 833 834 835 836 837 837 837 837 836 834 833 831 830 828 826 824 822 820 818 816
783 784 782 787 784 784 783 784 783 782 783 787 786 789 792 800 810 823 825 827 826 826 825 825 825 826 827 828 830 831 831 832 833 833 835 836 836 837 837 837 836 835 833 831 830 828 827 826 824 822 820 818 816 814
786 788 787 791 787 786 788 788 788 792 797 791 790 801 815 826 831 830 830 829 829 829 829 830 832 832 832 833 833 834 835 835 835 835 835 836 838 838 837 836 835 834 832 830 828 826 825 823 822 819 817 815 814 812
790 791 786 791 791 790 794 796 797 802 804 806 810 818 825 832 835 834 834 833 833 834 834 834 835 835 837 837 838 838 838 838 838 839 838 838 838 838 836 835 834 832 830 828 826 824 821 820 818 817 815 814 812 810
796 792 791 792 794 798 801 802 803 805 808 813 816 818 825 833 838 839 839 838 838 838 838 838 839 840 840 840 840 840 841 841 840 839 839 838 837 836 835 833 831 829 827 826 824 822 820 818 816 815 813 812 810 808
799 801 798 794 798 804 805 803 803 805 810 814 822 827 830 831 836 843 844 843 842 841 842 842 843 843 843 843 842 841 841 841 840 838 837 836 834 833 832 830 828 826 824 823 821 820 818 816 814 813 811 809 807 805
805 804 804 802 800 801 810 809 808 811 816 820 827 831 833 834 840 847 847 846 847 846 846 845 845 844 844 843 842 842 841 839 838 836 834 832 831 830 829 827 825 823 822 820 819 817 815 813 812 810 809 807 805 803
Wind_Speed
36 35 34 35 35 30 42 42 45 44 42 40 40 38 37 43 55 17 4 2 1 3 5 0 2 6 5 6 7 8 6 2 2 2 3 3 2 4 3 2 4 6 6 3 3 3 5 6 6 3 3 1 2 3
28 28 31 31 35 35 35 38 37 35 34 36 35 35 37 45 52 13 4 13 15 7 4 6 8 6 2 2 6 10 1 6 5 4 1 3 2 0 1 3 3 4 3 2 6 2 3 7 4 1 2 3 2 3
33 50 48 45 46 39 37 35 34 33 31 30 31 33 39 47 44 9 14 14 10 4 4 3 3 4 6 3 1 4 2 4 4 3 4 2 3 4 4 4 3 4 4 3 2 2 7 8 9 8 9 8 5 4
41 38 38 37 35 31 28 26 25 26 27 29 31 35 40 48 37 12 10 13 14 4 4 3 4 4 10 3 2 0 9 9 7 2 3 3 3 3 3 0 3 1 8 5 5 9 6 1 2 7 5 2 2 1
32 31 31 31 29 26 23 22 22 24 26 27 28 33 39 48 33 15 19 11 12 3 3 4 3 9 12 8 11 12 15 8 3 3 2 2 3 4 1 0 3 5 3 4 2 4 3 4 6 7 3 2 4 7
34 33 31 27 24 22 19 19 21 22 25 29 33 37 41 43 29 20 3 3 8 12 4 3 2 4 9 11 17 14 8 5 3 3 3 3 1 1 3 4 4 2 2 2 2 4 3 4 6 5 6 8 11 14
34 32 30 27 26 26 27 25 22 24 31 31 37 41 36 35 26 2 4 12 19 11 3 4 3 2 6 5 4 5 8 4 3 3 2 3 2 2 3 3 4 4 4 3 4 2 5 9 6 10 15 19 22 21
33 31 30 29 28 28 27 26 28 29 30 33 35 30 24 23 18 8 11 19 19 5 2 4 2 2 8 3 2 4 2 2 5 3 2 2 2 0 2 3 4 5 5 7 8 9 11 12 14 15 18 18 14 10
30 30 33 33 34 27 28 34 34 34 34 33 29 24 14 6 3 4 8 13 9 3 4 3 4 3 2 2 1 2 2 3 1 2 2 2 2 3 2 3 5 3 2 6 9 11 12 14 14 14 13 12 10 8
25 23 27 30 28 28 27 23 16 14 12 11 7 6 3 3 4 4 4 2 5 5 5 4 1 3 1 1 2 2 2 2 2 2 1 0 2 4 3 3 4 3 6 10 13 11 13 13 11 10 9 6 3 3
23 22 20 21 18 19 16 13 11 11 13 6 3 3 3 6 5 4 3 4 3 4 3 2 3 4 3 2 3 2 3 1 2 2 3 3 3 3 2 4 6 7 8 6 13 13 15 13 9 6 5 6 6 4
19 21 20 21 18 15 11 12 6 6 7 6 12 9 4 4 3 6 2 1 3 2 1 2 3 3 2 1 3 1 3 1 3 3 2 3 3 7 7 7 9 12 15 16 17 14 10 9 8 7 6 6 6 5
21 22 18 16 16 15 15 14 17 14 10 6 5 4 3 3 5 3 4 2 3 2 2 2 3 2 2 2 3 2 2 2 5 3 3 2 8 7 8 9 10 11 12 13 13 12 11 11 11 10 9 9 9 9
27 25 23 19 15 13 10 7 1 7 9 4 4 5 3 2 4 3 2 3 2 2 4 4 3 2 1 2 1 3 2 3 3 4 2 4 6 8 10 9 10 9 8 11 11 11 11 11 11 14 14 13 13 12
26 30 25 22 18 17 16 12 9 8 6 4 3 3 3 2 3 2 2 3 2 1 1 3 3 2 2 3 2 3 4 3 2 1 2 5 9 12 10 9 9 8 7 9 10 11 11 11 10 10 9 10 11 10
16 22 25 18 16 14 12 9 8 6 5 3 4 3 1 3 2 2 3 2 2 1 1 3 3 2 2 2 3 3 4 3 3 2 3 7 8 10 10 8 9 10 11 11 11 10 10 11 10 8 7 11 12 11
19 7 11 16 19 15 10 8 7 6 3 3 3 3 2 4 3 2 2 2 2 1 2 1 2 2 2 2 2 0 2 2 4 3 3 6 11 11 12 12 11 12 11 11 10 10 9 8 7 8 10 13 14 12
15 12 6 7 10 13 9 10 4 3 5 4 3 3 2 3 2 3 2 2 2 2 1 2 3 2 2 3 3 3 4 4 5 5 5 7 11 13 12 13 13 12 12 11 10 8 8 7 7 9 10 13 14 15
17 13 7 6 4 6 3 4 4 4 5 2 2 2 3 3 3 4 3 4 4 2 4 2 2 2 2 2 4 6 6 5 6 5 5 11 13 14 16 15 14 11 10 10 8 7 6 8 8 9 11 13 14 16
12 12 15 12 5 5 4 3 3 4 3 2 2 3 3 3 1 2 4 4 2 1 3 3 2 2 2 4 3 7 6 8 8 7 7 7 11 12 11 10 10 9 8 7 8 7 6 6 8 10 11 12 13 16
8 14 13 8 7 11 4 3 4 3 3 3 1 2 3 1 3 3 4 4 3 3 2 3 3 4 6 6 6 7 7 7 4 3 6 7 9 10 11 10 9 8 7 6 6 6 7 7 9 10 10 11 12 13
9 10 6 10 6 5 4 8 2 2 2 2 2 2 3 2 2 3 3 4 3 3 2 2 4 4 6 8 11 12 11 14 16 18 18 15 8 8 8 7 6 7 7 6 6 5 6 7 8 8 9 10 10 11
6 7 7 10 5 5 3 6 3 4 2 2 1 2 2 2 2 3 3 3 3 4 5 6 7 10 12 12 14 15 13 13 13 13 12 12 12 10 9 8 7 6 5 5 5 5 5 7 7 8 9 9 10 11
8 6 6 5 6 3 2 3 2 2 2 2 2 2 2 2 2 2 2 2 3 6 6 8 8 6 9 10 9 11 11 11 13 13 10 10 10 9 8 7 6 6 5 3 4 4 6 7 8 8 9 10 11 11
5 8 4 6 3 4 4 3 3 2 2 2 2 2 2 0 1 1 2 2 4 5 4 5 5 7 5 5 8 9 9 7 9 11 9 9 9 8 7 6 5 5 5 5 6 7 8 8 9 9 10 10 12 12
7 8 5 3 3 3 2 2 1 2 1 1 2 2 1 2 2 3 3 4 4 5 6 5 4 5 6 7 6 6 7 6 7 10 8 7 7 5 4 3 2 2 7 7 8 9 10 10 10 11 11 11 11 13
5 5 3 3 2 2 2 2 1 1 2 2 2 2 1 2 3 3 2 6 3 7 8 10 8 9 9 9 9 8 8 8 8 10 9 8 8 7 6 5 5 5 7 8 8 8 10 11 11 11 12 12 11 11
3 3 3 3 3 3 2 2 2 3 2 2 1 2 2 3 3 3 4 6 6 8 11 13 13 12 11 10 9 9 10 10 10 8 7 6 5 4 6 5 6 9 10 10 10 10 9 10 11 12 13 12 12 10
3 2 0 3 1 3 3 3 2 2 4 2 2 2 3 3 4 6 6 6 5 7 9 10 10 9 11 12 11 9 7 5 3 3 3 2 2 2 6 6 7 8 10 10 10 10 9 10 10 10 10 9 9 8
4 4 2 2 2 3 3 3 3 3 6 5 4 4 3 4 8 8 8 9 10 9 7 6 5 5 5 4 5 7 8 8 8 6 4 3 5 8 7 8 9 9 11 11 11 11 10 8 8 7 7 7 7 8
3 2 2 2 2 2 3 2 9 7 4 4 7 4 5 4 4 10 11 9 7 6 6 7 7 7 6 6 5 4 4 6 8 7 6 7 8 7 8 9 9 10 11 11 10 10 10 9 8 8 8 8 8 8
4 4 2 1 2 2 4 2 2 2 2 2 3 2 2 2 3 3 9 7 7 8 8 7 5 5 5 5 5 5 4 6 7 10 10 10 9 8 9 10 12 12 11 12 11 10 9 9 8 8 8 8 8 8
1 2 2 1 1 1 3 2 3 2 3 2 3 2 3 3 3 3 5 9 8 6 5 5 4 3 4 6 5 5 8 10 13 13 12 12 11 11 13 12 11 11 12 12 11 10 9 9 9 8 8 8 8 8
Wind_Direction
178 181 185 187 188 190 173 175 176 185 188 189 192 193 191 187 189 194 163 131 193 90 107 113 122 153 142 174 150 140 143 181 122 128 138 172 161 184 196 144 181 179 165 177 134 200 273 154 142 215 16 47 346 230
170 184 192 190 181 174 172 183 186 182 184 188 189 189 187 183 181 177 131 107 94 72 84 88 82 47 16 94 127 174 22 150 163 115 157 115 140 141 161 200 197 223 228 214 212 225 105 195 281 337 329 345 1 321
150 135 144 155 169 175 176 173 175 178 180 184 187 186 181 179 179 180 145 126 85 95 105 144 85 12 39 32 190 144 202 139 152 23 138 120 136 163 163 221 195 211 178 232 235 167 238 247 264 270 274 279 297 292
128 130 141 148 151 152 154 159 166 175 180 182 183 180 177 178 182 176 136 122 98 91 115 90 15 29 347 342 211 40 125 98 110 109 107 133 125 227 181 116 223 31 167 200 246 281 270 307 329 334 307 291 279 22
126 126 126 128 134 140 146 152 158 163 166 166 168 170 174 178 189 180 134 123 106 103 129 117 115 31 32 70 93 110 128 123 129 95 86 105 107 140 77 269 238 189 194 198 255 36 328 32 15 359 20 69 100 111
116 115 116 120 124 125 132 143 150 158 161 163 166 165 164 171 173 142 79 89 123 123 113 124 53 20 30 67 72 64 57 66 72 87 93 81 71 183 142 202 72 62 353 327 333 350 19 46 42 43 85 95 96 97
111 110 110 111 112 109 105 106 127 142 148 155 157 155 158 166 175 58 112 150 188 160 130 116 134 52 353 29 45 39 38 59 56 94 71 118 122 176 156 208 70 36 27 39 15 311 123 41 79 85 95 96 96 93
106 104 100 98 108 105 102 99 101 110 126 137 145 144 141 139 111 68 65 135 157 175 99 110 89 135 8 56 84 4 57 57 36 93 98 99 103 23 220 83 47 43 84 56 55 67 93 104 97 99 105 102 90 95
108 104 96 92 98 100 100 106 100 105 112 117 121 122 120 68 76 97 101 104 111 49 116 93 127 152 35 72 61 78 35 70 339 94 92 171 154 208 54 344 328 354 19 113 97 93 100 105 109 107 101 98 123 161
110 109 105 93 92 99 100 98 87 88 105 73 98 55 70 39 91 84 52 38 27 7 34 80 86 110 42 136 80 95 32 84 117 80 126 220 156 95 37 354 328 312 158 132 114 116 119 112 110 118 131 130 81 75
114 112 115 128 120 102 100 100 84 73 96 21 54 56 83 42 49 32 51 51 345 50 40 82 89 118 14 130 113 7 113 94 126 122 196 161 199 119 98 72 64 88 114 119 115 123 126 134 136 121 91 67 54 43
126 118 114 114 114 115 98 70 67 92 99 116 114 102 67 33 59 86 59 28 37 115 97 113 90 87 96 110 106 79 98 164 127 129 182 204 100 135 129 113 104 107 112 114 120 119 110 95 85 85 80 65 47 30
133 140 134 121 112 107 108 91 84 83 88 71 56 59 41 310 63 112 148 93 108 129 131 136 99 90 124 76 79 117 122 122 135 188 213 59 145 146 135 126 115 107 104 107 101 96 91 83 71 66 66 44 35 32
101 111 116 119 127 135 142 157 91 38 62 60 49 50 32 46 59 51 60 88 93 91 101 110 86 77 96 93 117 116 76 149 194 215 192 148 134 119 135 131 122 103 87 97 93 88 78 76 76 66 61 48 37 23
82 95 94 86 104 116 129 120 93 75 56 58 14 59 52 77 56 60 59 84 44 74 102 98 72 71 54 99 46 121 158 210 231 154 116 142 140 148 140 130 119 108 100 96 93 82 74 72 74 70 47 32 19 10
77 70 68 67 81 102 121 119 68 64 62 59 53 95 77 87 68 51 50 70 9 50 57 47 89 92 79 99 169 194 184 194 142 122 107 137 137 143 135 122 115 111 107 101 95 90 79 65 56 44 34 20 10 2
86 58 69 72 66 65 95 74 46 49 58 58 54 18 38 65 69 74 54 49 320 58 75 95 102 69 109 129 141 327 79 91 111 107 103 123 143 140 131 122 121 114 110 102 91 75 68 59 49 32 15 3 354 349
56 50 96 110 92 62 51 42 70 67 68 40 68 31 46 32 82 68 60 5 37 85 88 88 115 136 135 143 142 134 114 96 79 87 95 116 125 129 127 120 110 105 101 94 88 80 63 48 32 16 1 353 346 346
58 52 82 114 108 84 74 49 41 80 54 47 55 29 53 72 43 57 63 53 62 66 120 106 89 93 102 69 114 126 126 121 108 91 74 85 103 105 107 107 105 103 92 81 75 67 62 47 30 10 360 353 347 341
65 68 67 73 91 80 73 45 35 73 71 58 47 47 60 61 75 50 56 34 33 46 55 45 60 52 43 71 56 133 133 135 131 118 107 97 100 103 105 108 103 101 94 91 73 51 40 32 19 5 356 350 343 340
50 39 43 57 56 60 76 29 64 61 98 74 40 43 66 40 46 34 30 359 58 34 68 51 75 73 68 62 62 94 101 136 120 143 147 138 120 113 105 98 93 88 84 67 53 43 31 19 359 350 347 345 342 342
19 30 42 38 69 63 72 24 55 96 70 82 69 45 67 58 47 33 337 46 56 43 31 87 110 106 81 64 66 75 91 98 97 95 106 121 123 115 102 92 98 87 74 54 40 26 10 358 347 343 343 342 348 351
32 35 49 28 72 48 45 344 61 20 60 67 100 72 64 67 48 329 66 57 78 37 59 75 84 95 98 89 82 73 76 92 95 98 101 103 104 105 103 89 77 76 70 45 21 5 349 340 339 344 344 349 347 347
34 49 40 46 39 72 359 39 40 55 76 49 72 86 63 53 360 70 97 72 53 51 85 107 112 107 98 82 75 70 72 91 98 94 97 110 107 95 94 92 81 66 48 16 2 345 339 339 344 346 348 346 343 338
62 12 25 41 32 60 56 46 33 60 82 50 115 118 108 10 94 77 62 75 39 32 31 99 91 88 101 96 91 78 58 82 99 98 76 94 108 110 98 90 86 58 19 358 349 342 340 341 342 341 339 336 333 330
72 21 40 35 30 44 46 93 72 64 70 91 71 94 150 120 96 75 56 20 31 26 20 29 85 95 78 81 99 82 58 63 96 100 87 79 78 86 84 70 42 61 3 353 338 333 332 333 329 328 327 327 325 324
68 52 38 27 18 88 88 68 55 33 57 56 104 136 167 114 91 72 66 18 26 30 30 37 60 87 100 91 79 69 66 69 86 105 109 93 80 69 63 46 24 349 340 335 332 325 318 318 317 317 317 318 321 322
62 32 45 14 49 27 61 46 42 34 37 39 119 47 41 33 79 43 35 43 60 70 70 65 67 76 81 82 86 86 84 89 91 93 95 83 71 65 41 26 2 348 344 338 329 323 314 307 308 311 313 313 316 320
58 13 313 56 72 63 44 31 40 53 354 316 73 86 87 61 18 14 19 37 61 75 75 75 67 73 74 74 79 80 66 46 24 39 32 25 9 18 349 348 345 342 341 335 330 326 316 310 303 302 305 307 309 311
24 352 34 50 53 62 51 9 65 66 41 65 100 108 93 68 29 32 47 52 59 63 61 65 56 56 64 71 78 67 56 50 45 37 3 359 342 322 325 327 329 329 333 333 328 329 329 320 316 308 315 315 315 317
340 324 75 56 77 52 10 37 113 97 74 58 44 77 100 122 87 45 45 42 46 56 65 64 62 57 57 56 53 53 59 26 14 3 344 322 320 316 316 317 316 318 322 325 321 320 321 321 314 314 314 315 316 321
11 32 1 82 107 44 20 36 42 67 76 76 77 90 115 110 89 64 16 38 52 53 47 47 55 54 53 45 36 34 8 344 343 338 332 323 313 306 310 316 316 315 314 317 314 311 312 312 309 307 307 309 312 315
4 14 36 21 57 62 34 7 51 90 66 74 66 52 52 52 85 77 48 53 58 53 42 41 51 42 19 358 337 324 326 327 327 325 321 315 308 307 311 313 309 308 311 313 308 304 304 305 304 303 302 302 309 312